Terminal Aerodrome Forecast
Issued by NWS

Home | Current Version | Previous Version | Text Only | Print | Product List | Glossary On
Versions: 1 2 3 4 5 6 7 8 9 10 11 12 13 14 15 16 17 18 19 20 21 22 23 24 25 26 27 28 29 30 31 32 33 34 35
000
FTUS45 KBOU 011739
TAFAPA
TAF
KAPA 011739Z 0118/0218 35008KT 6SM -SN SCT003 OVC012
      TEMPO 0118/0120 3SM -SN BR BKN003
     FM012000 03010KT P6SM -SHSNRA SCT012 OVC025
      TEMPO 0120/0124 4SM -SHSNRA BKN010
     FM020300 06008KT P6SM VCSH SCT015 BKN025 OVC050
     FM020500 16005KT P6SM SCT025 BKN050
     FM021000 19006KT P6SM FEW050 SCT100
     FM021500 VRB05KT P6SM FEW100=

USA.gov is the U.S. government's official web portal to all federal, state and local government web resources and services.